sat.trackr.live / text

‹ back to catalog

2024-226A

NORAD 62185 · 2024-226A

PAYLOAD ACTIVE UNKNOWN

§ Identity

Operator
Country
PRC
Launch date
2024-11-30
Launch site
WSC
Launch vehicle
Mass (kg)
RCS (m²)

External: N2YO · Heavens-Above · Gunter

§ Orbital elements

Epoch: 2026-09-22T23:59:39.856704Z

Period
105.87 min
Inclination
50.0042°
Eccentricity
0.0056117
Mean motion
13.60155793 rev/d
Perigee alt
993.5 km
Apogee alt
1,076.7 km
Semi-major
7,413.3 km
B*
3.1486e-5
RAAN
254.4363°
Arg perigee
96.2087°
Mean anomaly
264.5195°
Rev number
9,002

§ Raw data

2024-226A1 62185U 24226A   26265.99976686 -.00000112  00000+0  31486-4 0  99992 62185  50.0042 254.4363 0056117  96.2087 264.5195 13.60155793 90027

JSON: /api/v1/satellites/62185 · /tle

For live sub-satellite position, see the globe view (requires WebGL).

§ Visibility from observer

Set your observer location to see the next 7 days of passes ≥ 10°. The values pass through the URL so the page stays shareable.

No JS? Fill the form by hand. The geolocation button needs JavaScript.